Wetbulb
48.20 48.18 47.74 47.98 48.44 46.69 42.68 39.67 35.91 44.33 43.92 34.48 30.69 31.17 34.30 38.05 35.88 38.71 36.82 35.90 33.47 31.22 30.15 28.62 29.45 29.46 31.69 35.00 34.66 29.35 31.38 26.64 21.17 19.19 25.53 27.42 25.93 22.82 21.93 18.60 17.71 20.95 19.18 18.15
47.79 47.72 47.06 47.39 47.96 45.54 41.66 37.48 36.37 43.11 42.80 30.40 30.30 33.97 34.34 35.89 35.45 34.90 35.43 33.54 34.17 33.36 30.63 26.77 29.40 30.83 34.99 34.69 31.75 30.17 30.94 24.64 20.18 19.43 22.78 24.98 21.59 24.55 24.19 23.72 22.51 16.84 14.63 17.21
47.77 47.39 46.96 47.17 47.75 47.13 40.05 37.25 33.20 37.42 35.73 33.19 33.39 32.69 32.74 32.70 37.24 35.76 37.44 35.44 35.52 32.47 30.37 31.96 28.60 29.41 34.11 36.01 32.53 33.23 30.97 22.58 20.69 19.50 18.84 21.47 18.87 22.33 23.35 22.34 18.15 16.78 17.20 18.48
47.26 47.15 47.12 47.23 47.99 46.78 42.16 35.46 33.77 34.20 33.22 33.31 33.65 34.39 33.92 32.03 31.87 36.01 36.30 34.34 34.32 32.15 28.26 29.04 28.25 30.58 31.54 34.17 33.92 30.01 28.25 20.38 18.75 17.17 20.70 23.18 21.71 21.72 21.87 20.20 20.38 15.30 18.36 19.56
47.14 46.88 47.80 48.67 48.68 46.27 39.67 36.30 34.67 33.49 32.88 34.09 33.79 33.21 32.55 31.87 32.72 33.73 32.45 32.88 34.22 33.38 30.31 30.89 28.06 30.47 30.51 29.74 31.87 28.43 27.50 20.84 19.77 17.90 22.87 23.46 21.84 23.57 23.34 22.82 22.36 22.27 22.32 21.83
49.02 49.22 49.32 49.53 48.93 45.36 40.22 37.51 37.29 37.66 30.77 31.91 31.84 31.87 33.46 33.44 34.88 35.19 36.03 35.25 33.36 31.87 33.30 35.34 35.93 35.63 34.36 33.77 31.48 27.18 25.52 22.55 19.93 17.57 21.94 22.65 19.00 22.48 21.04 22.94 23.79 22.88 19.39 24.89
49.59 49.40 49.38 48.74 48.31 45.43 42.92 39.94 37.81 35.64 30.41 31.22 32.47 34.42 35.02 33.89 34.13 33.23 35.45 36.13 34.47 36.68 39.42 39.26 38.21 35.37 33.86 33.94 33.03 31.78 25.12 24.05 22.82 20.33 20.59 12.11 21.41 22.67 24.53 22.83 24.38 25.00 25.06 26.61
49.11 49.01 48.85 49.26 48.21 46.63 43.77 39.78 39.10 35.56 30.73 32.24 33.40 34.77 34.10 34.78 35.12 34.42 35.31 36.92 37.95 40.51 37.90 33.20 29.74 28.58 29.46 28.32 29.55 31.20 29.68 27.53 20.34 18.53 17.39 20.71 21.82 23.07 23.94 22.36 22.18 26.72 25.62 28.08
48.55 48.58 48.53 48.37 47.77 46.32 41.73 39.29 39.33 38.45 34.50 32.77 35.86 34.55 34.87 32.78 32.78 34.00 35.54 39.10 40.15 39.61 34.66 32.65 25.49 22.95 23.82 24.63 25.42 30.09 28.41 29.32 26.31 18.02 15.32 12.25 19.92 23.78 28.43 28.90 19.54 29.13 25.76 27.50
48.12 48.33 48.34 48.15 47.45 46.66 42.50 39.57 39.31 39.21 34.99 35.70 36.41 34.35 34.37 34.51 32.96 32.98 33.54 36.38 37.11 37.76 32.19 29.82 27.15 24.64 27.47 22.35 18.04 18.70 23.34 21.77 21.05 18.89 18.08 20.37 23.14 25.65 30.91 17.56 20.81 28.91 29.31 29.94
47.62 47.98 48.04 47.94 47.55 46.09 43.34 39.63 39.45 40.03 35.13 35.83 37.71 39.09 36.22 35.42 34.52 33.44 34.42 35.14 35.13 33.39 30.56 29.13 27.88 26.06 26.89 23.23 21.47 18.96 21.39 19.93 19.86 19.35 16.10 14.01 27.20 28.96 23.38 28.99 30.92 32.56 33.18 32.81
46.85 47.34 47.56 47.45 47.61 46.07 43.27 39.27 40.13 39.46 39.09 38.21 38.57 41.48 42.12 41.78 40.26 36.08 34.21 35.39 34.24 36.45 32.28 29.71 28.69 27.85 25.61 25.24 23.47 24.26 20.76 24.55 24.08 23.73 23.61 26.51 27.38 30.00 31.93 32.72 33.39 33.96 34.35 34.18
46.32 46.87 47.52 47.14 47.21 46.88 44.64 41.16 39.29 38.60 36.46 37.05 37.83 37.35 40.70 42.56 42.10 42.87 37.12 35.38 36.79 35.33 35.96 32.86 31.30 27.98 29.37 25.59 25.34 25.21 26.36 27.12 25.81 24.85 26.51 26.80 30.36 31.88 32.71 34.95 34.55 35.92 36.32 35.08
45.59 46.04 46.41 46.67 46.24 46.00 44.45 42.02 40.02 37.04 33.33 31.83 34.14 38.51 38.86 41.71 42.64 41.65 41.43 39.73 37.43 36.47 35.32 32.65 31.45 29.62 31.17 28.95 28.92 27.22 30.71 27.78 27.72 26.98 29.28 29.64 31.58 33.94 36.09 35.66 36.24 36.08 36.36 35.70
45.43 45.66 45.89 46.41 46.00 43.56 40.66 39.67 39.51 39.30 39.06 32.53 31.15 36.37 39.07 39.40 41.78 41.11 39.51 38.77 36.60 34.85 32.95 31.96 31.11 30.66 29.86 29.82 28.46 26.97 30.21 29.09 27.74 27.90 32.23 32.54 32.43 35.73 36.85 35.60 35.41 36.33 35.68 34.98
44.66 44.90 45.61 45.61 45.67 39.38 36.48 33.63 40.02 40.82 38.53 35.25 30.43 35.05 36.14 38.83 39.20 38.69 37.07 36.75 34.35 34.01 33.68 32.64 32.07 32.26 32.21 28.05 26.46 32.35 31.96 33.38 34.97 32.72 34.23 35.34 35.79 36.37 37.05 36.34 36.75 36.94 36.56 36.68
44.08 44.34 44.85 44.92 44.76 40.41 36.04 33.27 38.89 41.81 40.73 35.96 31.13 29.85 35.24 36.28 38.01 36.69 36.39 35.77 35.13 35.55 33.38 30.42 31.50 32.14 32.87 29.83 26.80 33.84 32.26 34.23 34.44 35.46 34.76 33.04 34.91 34.49 36.75 37.16 38.00 38.38 37.46 37.13
44.50 44.50 44.36 43.77 44.47 42.71 39.45 38.65 42.51 40.22 38.45 36.05 30.74 30.61 31.52 36.73 34.13 34.45 34.57 35.08 34.61 33.70 33.64 30.62 30.48 31.02 31.83 27.42 33.17 34.09 33.01 34.21 34.66 34.59 36.79 36.20 37.31 37.31 36.20 37.40 37.02 36.22 35.72 36.00
44.71 43.95 42.06 39.10 36.35 35.90 39.15 43.23 38.77 38.11 37.60 31.28 31.51 30.03 29.29 34.22 32.76 33.24 33.75 34.44 32.59 33.52 31.15 31.03 30.59 29.81 26.72 31.90 33.36 33.43 32.90 33.08 34.58 35.75 35.74 35.88 35.44 35.98 36.09 35.83 36.10 36.13 35.96 35.87
41.14 37.16 33.05 30.02 37.02 41.82 40.78 35.09 32.16 31.53 32.13 33.19 29.64 32.04 29.70 33.04 31.67 30.85 31.51 31.83 31.74 29.51 32.60 30.76 28.46 29.82 34.34 35.24 35.53 36.12 35.98 35.37 36.67 33.52 32.21 33.47 33.85 34.95 35.17 35.08 36.82 36.97 37.17 36.92
35.47 32.16 32.54 35.87 40.60 37.41 32.82 28.82 28.55 27.94 26.63 29.28 30.98 30.97 29.71 33.55 31.42 31.97 31.87 30.85 30.52 26.43 30.43 29.10 29.53 28.86 33.02 36.09 36.67 36.64 37.04 36.62 37.34 38.58 38.21 37.72 37.13 35.99 35.54 35.22 36.44 36.88 36.85 35.98
37.18 37.99 39.38 37.88 34.00 29.91 27.59 25.09 27.22 25.66 26.08 27.61 28.98 30.87 31.89 31.81 32.90 32.12 29.73 29.05 28.98 25.38 30.99 28.09 26.40 32.56 35.97 35.48 35.16 36.58 36.49 36.75 36.88 38.22 36.93 37.36 36.76 37.09 36.77 36.57 36.31 36.55 37.02 36.92
39.21 35.21 33.08 31.48 27.84 19.90 22.61 18.33 24.56 24.48 28.44 28.86 30.40 30.42 32.64 32.06 32.33 29.98 29.49 26.41 25.84 30.74 26.15 26.47 30.22 35.54 34.84 35.28 35.44 34.78 36.10 36.79 36.95 36.80 37.58 37.24 36.96 37.36 37.16 36.30 37.02 37.67 37.06 37.50
33.47 28.91 19.97 25.84 22.48 23.96 25.72 26.84 27.81 30.25 30.56 29.92 31.46 30.75 30.31 30.60 30.15 30.06 26.63 29.58 28.27 23.46 22.29 24.60 33.09 34.65 35.38 35.55 35.54 34.77 33.78 35.07 35.60 35.64 36.06 36.15 36.04 36.21 37.30 37.67 38.33 35.70 36.71 37.54
29.39 29.79 19.11 25.03 28.97 29.06 29.70 30.44 30.56 32.13 33.52 32.96 31.79 31.01 30.39 29.37 28.53 28.37 28.48 24.42 22.04 24.78 25.73 30.98 34.37 34.25 33.92 33.92 34.04 34.34 34.46 34.64 35.07 35.64 35.26 35.93 36.36 36.18 36.45 37.52 37.83 37.38 37.99 37.68
31.37 29.50 26.80 29.88 29.03 29.24 28.80 28.98 30.18 34.63 33.76 34.19 33.03 30.73 27.92 27.82 28.40 25.71 24.55 24.14 23.13 28.14 29.86 33.76 33.74 33.20 34.25 35.53 35.01 34.60 34.82 35.16 35.82 35.77 35.97 36.33 35.96 36.11 37.21 37.90 37.31 36.43 36.61 33.44
28.19 27.03 29.87 29.26 29.42 28.72 29.62 31.50 31.92 35.73 34.14 31.04 31.58 26.81 27.47 29.43 25.72 24.40 28.86 26.38 29.16 31.74 32.97 33.25 33.78 33.45 34.00 35.38 36.05 34.99 34.25 34.26 35.36 35.57 36.02 36.31 36.97 37.55 36.37 35.39 36.95 37.52 37.54 35.80
MSLP
1022.42 1022.44 1022.36 1022.18 1021.94 1021.69 1021.64 1022.95 1023.65 1023.36 1022.89 1024.11 1025.75 1026.13 1025.90 1025.69 1025.75 1025.61 1025.90 1026.29 1026.68 1027.13 1027.58 1027.99 1028.30 1028.58 1028.76 1028.90 1028.99 1029.06 1029.63 1030.12 1030.82 1031.89 1032.61 1032.65 1032.48 1032.28 1031.89 1031.06 1030.23 1030.08 1030.17 1030.23
1022.58 1022.59 1022.48 1022.36 1022.14 1021.91 1022.52 1023.93 1024.27 1023.60 1023.41 1025.40 1026.37 1026.26 1026.06 1025.91 1025.83 1026.02 1026.15 1026.66 1026.98 1027.49 1027.87 1028.35 1028.54 1028.79 1029.15 1029.11 1029.27 1029.51 1029.87 1030.62 1031.42 1032.35 1032.97 1032.88 1032.85 1032.54 1032.06 1031.34 1031.28 1030.74 1030.78 1030.48
1022.70 1022.62 1022.55 1022.45 1022.30 1022.23 1022.69 1024.41 1025.17 1025.19 1025.51 1026.58 1026.28 1026.45 1026.41 1026.18 1026.03 1026.22 1026.43 1026.91 1027.22 1027.62 1028.02 1028.31 1028.60 1028.88 1029.24 1029.35 1029.59 1029.89 1030.22 1031.39 1031.93 1032.70 1032.92 1033.17 1033.02 1032.79 1032.30 1031.50 1031.39 1031.30 1031.32 1031.05
1022.77 1022.72 1022.62 1022.50 1022.40 1022.31 1022.82 1025.15 1026.58 1026.80 1027.15 1026.97 1026.66 1026.54 1026.54 1026.41 1026.38 1026.41 1026.60 1027.05 1027.29 1027.60 1027.95 1028.27 1028.54 1028.90 1029.26 1029.64 1030.01 1030.40 1030.86 1031.84 1032.72 1033.28 1033.24 1033.14 1033.04 1032.93 1032.68 1032.26 1032.30 1032.10 1031.88 1031.26
1022.92 1022.78 1022.66 1022.55 1022.48 1022.52 1023.45 1025.30 1026.20 1027.09 1027.26 1027.04 1026.80 1026.87 1026.80 1026.68 1026.81 1026.87 1026.97 1027.11 1027.46 1027.62 1027.81 1028.07 1028.41 1028.78 1029.19 1029.67 1030.25 1030.74 1031.46 1032.42 1033.11 1033.36 1033.16 1033.11 1032.93 1032.88 1032.72 1032.35 1032.42 1032.35 1031.87 1031.13
1023.08 1022.91 1022.66 1022.51 1022.47 1022.63 1024.00 1025.54 1025.78 1025.85 1027.66 1027.30 1027.07 1027.16 1026.97 1026.90 1026.91 1027.27 1027.22 1027.28 1027.56 1027.71 1027.86 1028.06 1028.37 1028.69 1029.12 1029.53 1030.10 1030.84 1031.51 1032.31 1032.93 1032.87 1032.86 1032.75 1032.56 1032.03 1032.62 1032.42 1032.33 1032.42 1031.83 1031.35
1023.28 1023.03 1022.82 1022.68 1022.68 1022.73 1023.65 1024.96 1025.45 1026.29 1027.65 1027.51 1027.08 1027.04 1027.13 1027.22 1027.29 1027.35 1027.50 1027.52 1027.59 1027.93 1027.94 1028.37 1028.76 1029.05 1029.41 1029.82 1030.35 1030.72 1031.38 1031.94 1032.43 1032.50 1032.66 1032.35 1031.66 1031.90 1032.15 1032.42 1032.10 1031.97 1031.78 1031.26
1023.48 1023.27 1023.08 1022.91 1022.87 1023.09 1023.69 1024.92 1025.29 1026.35 1027.34 1027.58 1027.41 1027.20 1027.42 1027.63 1027.74 1027.78 1027.76 1027.77 1027.81 1027.90 1028.19 1028.54 1028.76 1029.22 1029.63 1030.04 1030.44 1030.78 1031.05 1031.47 1032.09 1032.48 1032.12 1031.35 1031.39 1031.87 1032.01 1032.12 1031.52 1031.31 1031.35 1031.00
1023.92 1023.70 1023.45 1023.29 1023.31 1023.37 1024.08 1025.41 1025.60 1026.01 1026.96 1027.59 1027.30 1027.41 1027.57 1027.85 1028.08 1028.22 1028.20 1028.19 1028.23 1028.20 1028.66 1028.84 1029.25 1029.36 1029.68 1030.08 1030.46 1030.98 1031.30 1031.38 1031.61 1032.38 1032.01 1031.17 1030.91 1031.02 1031.23 1031.43 1030.88 1030.58 1030.86 1030.63
1024.43 1024.12 1023.85 1023.72 1023.54 1023.36 1023.83 1025.66 1025.79 1025.84 1027.13 1027.49 1027.42 1027.39 1027.60 1027.81 1028.18 1028.36 1028.57 1028.50 1028.59 1028.74 1028.99 1029.16 1029.48 1029.52 1029.85 1030.34 1030.74 1031.00 1031.30 1031.63 1031.54 1031.69 1031.49 1030.56 1030.49 1030.66 1030.86 1030.82 1030.69 1030.10 1030.21 1030.16
1025.01 1024.74 1024.30 1023.98 1023.88 1023.82 1024.13 1026.01 1025.93 1025.74 1027.03 1027.52 1027.37 1027.22 1027.38 1027.74 1027.87 1028.09 1028.61 1029.04 1028.98 1029.25 1029.27 1029.51 1029.57 1029.82 1029.95 1030.44 1030.47 1030.62 1030.94 1031.11 1031.09 1031.27 1031.08 1030.25 1029.97 1030.44 1030.32 1029.70 1029.42 1029.28 1029.31 1029.40
1025.61 1025.36 1024.92 1024.48 1024.23 1024.15 1024.19 1025.76 1026.14 1026.11 1026.46 1027.39 1027.28 1026.81 1026.62 1026.67 1026.81 1027.54 1028.39 1028.42 1028.49 1028.67 1029.15 1029.60 1029.67 1029.59 1030.01 1029.88 1030.04 1030.43 1030.51 1030.02 1029.94 1030.16 1029.42 1029.12 1029.39 1029.16 1028.97 1028.99 1028.74 1028.58 1028.58 1028.68
1026.09 1025.87 1025.63 1025.25 1024.84 1024.56 1024.52 1025.86 1026.54 1026.47 1027.19 1027.41 1027.13 1026.77 1026.60 1026.48 1026.61 1026.76 1027.41 1028.31 1028.18 1028.57 1028.83 1029.12 1029.30 1029.31 1029.39 1029.24 1029.00 1029.15 1029.15 1029.28 1029.11 1029.28 1028.15 1028.20 1028.21 1028.32 1028.36 1028.21 1028.11 1027.97 1028.02 1028.12
1026.67 1026.42 1026.10 1025.82 1025.58 1025.27 1024.95 1025.96 1026.73 1026.78 1027.68 1027.71 1027.12 1026.52 1026.39 1026.09 1026.39 1026.66 1026.85 1027.21 1028.11 1028.41 1028.71 1028.82 1028.88 1028.80 1028.82 1028.40 1028.22 1028.11 1027.56 1028.25 1027.62 1027.44 1027.10 1027.37 1027.24 1027.20 1027.12 1027.32 1027.40 1027.41 1027.49 1027.63
1026.87 1026.71 1026.48 1026.16 1026.02 1025.88 1025.94 1026.39 1026.83 1026.69 1027.17 1027.67 1027.38 1026.72 1026.04 1025.99 1026.14 1026.51 1026.88 1027.24 1027.75 1028.24 1028.67 1028.66 1028.39 1028.36 1028.54 1028.08 1027.91 1026.44 1025.68 1025.27 1025.59 1024.87 1024.77 1025.10 1025.29 1025.88 1026.23 1026.48 1026.54 1026.67 1026.96 1027.31
1027.19 1026.92 1026.68 1026.36 1026.04 1026.05 1026.22 1027.01 1026.89 1026.82 1026.75 1027.13 1027.47 1026.81 1026.22 1025.96 1026.13 1026.55 1026.92 1027.23 1027.67 1027.89 1027.88 1027.89 1027.79 1027.70 1027.66 1027.34 1026.21 1022.91 1023.06 1023.17 1023.06 1023.34 1023.78 1024.23 1024.52 1025.01 1025.38 1025.58 1025.83 1026.15 1026.47 1026.78
1027.35 1027.05 1026.76 1026.55 1026.31 1026.14 1026.73 1027.09 1027.00 1026.80 1026.86 1027.07 1027.24 1026.77 1026.27 1026.11 1026.15 1026.68 1027.04 1027.34 1027.42 1027.51 1027.64 1027.56 1027.25 1027.16 1027.27 1026.37 1024.38 1021.10 1021.51 1022.09 1022.60 1022.86 1023.44 1024.10 1024.10 1024.02 1024.61 1024.99 1025.26 1025.64 1026.02 1026.38
1027.44 1027.03 1026.70 1026.41 1026.36 1026.65 1026.89 1026.98 1026.77 1026.89 1027.06 1027.32 1027.36 1026.71 1026.53 1025.97 1026.26 1026.75 1027.10 1027.10 1027.38 1027.28 1026.97 1027.30 1026.85 1026.97 1026.47 1024.20 1020.16 1020.27 1020.66 1021.50 1022.06 1022.14 1022.19 1022.38 1022.95 1023.64 1024.08 1024.51 1024.93 1025.28 1025.57 1025.94
1027.27 1026.93 1026.63 1026.67 1026.76 1026.96 1027.01 1026.92 1026.90 1027.00 1027.57 1027.37 1027.22 1026.66 1026.10 1026.09 1026.38 1026.77 1027.14 1027.11 1027.17 1027.20 1026.63 1026.28 1026.21 1025.13 1023.35 1018.90 1018.52 1018.90 1019.38 1019.29 1019.52 1021.15 1021.76 1022.11 1022.41 1022.89 1023.44 1024.00 1024.45 1024.67 1024.97 1025.47
1027.13 1027.05 1027.34 1027.43 1027.41 1027.13 1027.12 1027.05 1027.35 1027.61 1027.51 1027.45 1026.89 1026.31 1026.07 1026.21 1026.80 1026.83 1027.15 1027.13 1026.75 1026.51 1025.63 1025.72 1024.78 1021.51 1018.07 1017.20 1017.08 1017.20 1017.75 1018.49 1019.13 1020.28 1020.97 1021.27 1021.49 1021.76 1022.29 1022.71 1023.19 1023.66 1024.10 1024.64
1027.90 1028.38 1028.23 1027.74 1027.36 1027.27 1027.51 1027.73 1027.91 1028.01 1027.44 1026.65 1026.31 1026.31 1026.23 1026.23 1026.13 1026.48 1026.89 1026.57 1026.41 1025.96 1024.97 1024.95 1022.73 1019.42 1016.28 1015.25 1015.49 1016.19 1016.65 1017.24 1017.58 1017.31 1017.79 1018.68 1019.41 1020.44 1021.26 1022.05 1022.64 1023.17 1023.65 1024.11
1029.13 1029.20 1028.58 1028.24 1027.99 1028.10 1028.19 1027.88 1027.82 1027.70 1026.78 1026.56 1026.48 1026.28 1026.18 1026.32 1026.14 1025.90 1026.63 1026.20 1026.10 1025.04 1024.64 1024.19 1020.98 1016.97 1015.08 1015.00 1014.96 1015.26 1015.88 1016.37 1016.81 1017.27 1017.82 1018.62 1019.49 1020.09 1020.78 1021.41 1022.00 1022.52 1022.98 1023.49
1028.83 1029.04 1029.04 1029.00 1029.12 1029.10 1028.73 1027.95 1027.30 1027.22 1026.68 1026.72 1026.82 1026.81 1026.45 1026.62 1026.42 1026.08 1025.97 1025.61 1025.02 1024.54 1024.17 1021.50 1018.12 1015.30 1014.89 1014.80 1014.93 1015.10 1015.55 1016.02 1016.57 1017.11 1017.62 1018.13 1018.78 1019.52 1020.10 1020.75 1021.21 1021.79 1022.35 1022.76
1029.58 1029.85 1029.85 1029.59 1029.41 1028.59 1027.56 1027.25 1026.84 1026.51 1026.32 1026.52 1026.71 1026.80 1026.76 1026.51 1026.33 1025.83 1025.52 1024.44 1024.37 1023.73 1022.53 1019.75 1016.17 1014.98 1014.79 1014.79 1014.73 1015.05 1015.14 1015.48 1015.91 1016.39 1017.01 1017.54 1018.22 1018.81 1019.40 1019.98 1020.50 1021.23 1021.54 1021.98
1030.37 1030.57 1030.06 1028.82 1027.67 1027.28 1026.95 1026.67 1026.39 1025.95 1025.88 1025.72 1026.04 1026.16 1026.45 1026.15 1025.89 1025.06 1024.40 1023.94 1022.84 1021.39 1019.11 1016.99 1015.73 1015.39 1015.13 1014.83 1014.81 1014.89 1015.07 1015.28 1015.62 1016.03 1016.38 1016.87 1017.49 1018.09 1018.68 1019.22 1019.76 1020.29 1020.78 1021.22
1030.64 1030.27 1029.20 1027.95 1028.08 1027.22 1026.81 1026.33 1025.94 1025.52 1025.60 1025.72 1025.56 1025.18 1025.17 1024.56 1023.86 1023.44 1022.05 1021.32 1019.84 1017.90 1017.29 1016.29 1015.90 1015.51 1015.21 1014.87 1014.76 1014.77 1014.87 1014.97 1015.34 1015.81 1016.03 1016.41 1016.94 1017.33 1017.71 1018.60 1019.19 1019.56 1019.94 1020.46
1030.25 1029.03 1028.48 1028.63 1028.26 1027.81 1027.20 1026.69 1026.17 1025.91 1025.67 1025.20 1024.78 1024.37 1023.05 1022.43 1021.70 1020.78 1019.73 1018.72 1017.55 1016.97 1016.61 1016.42 1016.06 1015.74 1015.27 1014.89 1014.65 1014.64 1014.63 1014.81 1014.94 1015.26 1015.69 1015.89 1016.37 1016.94 1017.47 1017.81 1018.03 1018.52 1018.91 1019.34
Wind_Speed
6 4 6 8 10 4 8 3 4 3 2 6 2 2 1 2 2 4 4 3 3 1 2 3 1 1 2 5 1 1 2 3 3 3 4 4 5 5 3 4 3 3 4 1
4 4 6 8 9 9 3 3 0 2 3 5 2 1 3 3 2 3 2 2 2 2 2 2 1 1 2 4 3 1 2 3 0 4 3 2 3 8 8 8 7 1 4 2
5 4 5 7 8 4 5 3 3 5 6 1 5 4 1 2 2 3 3 3 2 2 2 3 2 1 2 2 3 6 4 4 2 1 2 2 1 6 9 5 2 5 2 11
5 4 6 7 7 4 5 4 1 0 1 3 4 3 1 2 1 2 2 2 0 2 2 2 1 1 2 3 5 3 2 3 3 0 2 3 3 4 2 6 3 3 6 10
5 6 7 6 3 4 6 4 4 2 2 1 3 3 1 2 1 1 1 3 2 1 3 2 3 3 1 1 3 2 3 4 2 1 6 5 7 8 5 4 3 6 7 10
7 8 8 6 3 4 3 1 2 4 2 1 3 1 2 1 2 1 2 4 3 3 4 3 3 2 3 3 2 3 2 5 3 2 4 6 9 9 5 3 3 3 4 5
9 9 8 5 5 5 3 2 3 4 1 0 2 3 2 2 2 2 1 3 2 2 6 6 4 5 5 4 3 3 5 4 2 1 2 4 0 1 2 5 5 6 7 9
12 10 10 7 5 5 4 2 3 4 3 1 1 6 4 3 3 2 2 1 1 7 3 1 3 1 1 1 3 4 4 4 2 2 3 5 4 4 5 5 4 4 5 7
13 12 11 8 7 9 5 3 1 4 6 4 2 3 2 3 2 2 2 3 1 4 2 0 2 2 1 2 2 4 5 1 1 2 3 4 2 3 5 4 4 3 5 6
15 14 12 11 9 8 6 3 1 4 4 2 3 2 4 4 3 2 1 2 1 2 1 1 2 2 1 3 3 3 3 1 5 3 5 5 5 4 7 4 2 2 4 3
16 15 14 13 10 5 5 1 2 3 3 1 5 4 4 3 2 3 3 2 1 1 2 2 2 3 1 2 3 4 4 5 4 3 3 5 7 7 5 2 2 3 2 2
16 16 16 15 13 8 5 3 2 2 4 2 1 2 2 4 6 5 3 1 4 3 3 2 2 3 2 4 3 3 4 5 3 7 5 3 6 4 6 4 4 2 3 2
15 15 15 15 14 13 7 3 2 3 3 2 1 2 1 2 4 3 4 2 3 4 1 3 1 4 3 3 5 4 5 6 4 2 5 11 10 9 7 6 8 5 5 3
14 14 14 13 13 12 7 3 1 4 3 3 4 2 3 2 3 3 1 5 5 5 1 2 2 3 4 3 3 5 5 11 7 6 7 4 10 11 8 9 8 6 5 4
11 11 12 13 10 9 7 3 2 1 4 2 3 4 3 2 4 5 5 6 4 2 2 2 3 1 3 2 2 6 10 9 8 7 10 7 6 14 11 9 8 7 8 6
11 11 11 10 9 3 4 5 2 3 1 4 2 2 2 2 4 5 4 4 3 2 2 2 2 2 3 3 5 7 15 11 9 5 11 10 7 11 11 10 9 7 9 7
10 10 10 10 9 3 3 5 2 2 0 3 3 3 1 2 3 2 2 2 1 1 2 3 2 3 5 3 7 6 14 15 12 7 12 7 10 8 11 9 9 8 8 7
13 12 11 7 5 6 2 2 3 1 3 2 2 3 2 4 2 2 0 2 1 2 1 1 3 3 3 9 14 7 9 14 13 14 12 6 10 11 8 10 8 9 10 9
15 13 6 2 4 2 1 6 4 2 2 3 3 3 4 1 2 1 2 0 2 1 3 3 5 5 12 15 12 14 15 18 15 17 15 9 12 14 12 11 11 11 11 9
9 5 5 4 2 7 3 5 4 4 3 1 3 0 2 2 1 1 1 0 2 3 3 4 5 9 15 14 14 10 16 17 16 15 16 16 14 15 14 16 13 13 12 10
5 4 1 3 7 2 3 1 1 1 3 3 2 4 2 3 4 4 3 2 2 3 1 4 4 9 7 9 19 14 15 20 19 21 18 17 11 15 13 11 12 11 10 10
2 3 3 3 3 3 3 3 2 3 4 1 1 2 2 1 0 2 3 2 2 6 4 3 7 8 8 5 7 14 15 19 20 20 14 15 15 14 12 11 11 12 11 9
2 2 3 3 3 4 1 4 2 3 1 1 1 0 0 1 0 2 2 4 6 2 3 7 7 9 4 5 5 8 12 15 17 16 14 13 15 13 12 11 10 11 11 10
3 3 6 2 3 5 4 3 1 2 1 2 1 1 0 0 2 2 4 2 2 3 5 9 6 5 7 6 5 7 13 16 17 17 15 15 14 13 12 11 10 10 11 11
2 2 5 7 3 4 3 2 2 1 2 3 3 2 2 2 3 4 1 3 6 7 7 5 4 6 6 6 4 8 10 12 14 14 15 15 15 13 13 12 11 12 10 10
1 5 5 5 2 3 1 2 4 3 3 1 1 2 3 7 5 6 11 5 9 5 4 4 5 6 6 6 6 8 8 11 11 12 13 13 13 14 14 10 11 10 11 10
5 5 3 3 4 3 3 2 2 2 1 3 2 6 13 1 5 6 6 6 4 2 4 4 5 7 9 7 6 6 8 10 11 11 12 13 10 9 10 12 12 12 13 11
Wind_Direction
46 33 43 31 17 332 52 89 55 328 19 56 31 72 83 118 9 42 71 80 77 84 78 74 109 62 12 353 7 58 30 85 58 101 96 204 63 13 347 283 319 323 282 122
45 47 43 30 25 37 117 84 276 328 75 98 49 64 54 84 66 32 90 96 55 56 102 118 49 66 77 33 55 69 147 60 148 167 189 144 46 354 338 267 247 244 291 17
69 55 28 19 14 47 85 89 42 350 49 29 111 108 58 107 44 78 81 117 103 120 97 38 107 110 62 32 99 67 89 83 182 189 152 140 40 350 3 3 332 329 346 307
68 34 4 4 10 108 90 30 93 194 63 26 91 99 86 111 84 68 51 94 84 161 148 129 86 107 160 61 3 58 73 111 119 130 165 187 188 260 316 43 1 352 308 307
38 6 348 348 11 109 77 122 136 46 72 352 75 22 79 140 163 351 23 148 144 158 167 219 164 172 208 206 77 62 32 116 116 247 201 218 253 233 240 241 256 263 281 291
21 4 354 3 144 76 95 129 57 97 344 61 98 181 142 144 127 77 45 156 126 129 156 142 99 125 123 139 176 122 95 145 154 245 293 247 259 225 210 264 241 211 287 298
25 24 16 42 133 87 115 159 112 88 133 233 148 136 89 99 355 168 64 127 128 165 111 106 110 87 91 103 100 139 142 141 151 314 239 248 42 240 199 215 264 232 270 274
29 27 28 43 71 114 88 117 107 117 116 137 122 114 114 102 41 54 88 317 345 140 85 323 340 30 149 98 71 203 193 155 116 251 244 304 175 188 181 193 267 221 240 279
30 26 26 47 84 108 90 69 27 102 119 228 156 128 146 146 118 35 56 29 94 68 70 117 343 294 256 234 196 79 116 66 156 171 261 256 203 211 167 134 247 191 216 284
29 28 29 32 58 74 102 80 34 95 103 233 144 167 169 133 123 141 271 190 146 22 113 244 228 267 241 246 235 186 177 124 217 198 250 276 238 199 147 220 106 214 214 263
28 28 30 33 33 74 80 84 8 108 111 244 188 173 141 126 159 159 157 128 175 103 182 209 205 226 193 229 211 197 197 175 196 177 226 269 152 134 214 209 205 249 267 244
29 25 25 33 37 47 89 73 359 3 89 158 259 238 206 196 188 138 184 183 168 191 115 198 150 213 199 224 274 187 236 206 192 206 220 234 200 217 220 205 248 249 262 237
29 29 29 26 34 41 87 112 0 51 75 14 84 197 166 128 179 178 131 232 178 176 167 148 125 241 160 222 231 207 219 181 229 214 207 218 220 221 233 220 225 244 236 213
21 18 25 33 29 31 71 79 354 81 100 116 267 335 233 140 155 163 123 130 96 97 149 141 180 248 194 230 292 233 201 160 201 240 235 205 231 217 209 211 223 230 207 195
20 17 13 12 29 72 71 74 36 97 125 201 264 298 239 239 166 148 123 126 127 148 144 174 223 176 193 201 265 234 188 183 185 213 188 179 198 197 202 203 203 207 198 196
4 0 360 3 10 83 74 26 6 7 98 104 302 304 262 163 135 136 135 141 119 140 177 203 222 225 207 237 251 243 194 196 182 174 177 176 158 180 188 198 205 207 195 198
348 344 343 345 345 59 105 177 248 356 51 93 316 305 257 257 117 96 126 93 144 186 162 219 218 192 193 241 239 239 197 198 194 160 137 182 193 193 192 197 195 188 194 191
330 326 324 320 104 96 53 345 16 67 90 73 199 255 299 175 160 185 46 157 169 195 216 167 205 145 219 251 230 223 190 191 198 186 191 186 179 194 184 194 174 180 193 194
324 322 322 48 37 64 240 330 85 61 141 203 182 209 234 133 102 104 118 57 235 83 238 224 167 190 225 231 215 203 190 189 186 191 198 183 187 196 199 189 195 200 207 203
334 28 41 342 303 313 356 12 27 14 339 27 250 51 179 125 41 98 134 128 237 240 222 131 218 250 248 245 222 215 192 186 167 172 200 202 207 199 195 198 196 201 206 207
28 14 301 261 317 40 25 8 75 307 264 193 220 202 156 203 139 180 212 210 206 258 190 230 245 259 244 227 226 208 194 188 192 204 206 204 195 191 191 196 201 199 203 207
234 274 297 325 34 33 66 257 291 218 255 195 209 196 197 176 232 144 178 215 171 250 141 235 258 259 259 250 227 208 194 192 196 200 191 188 193 189 193 195 197 203 206 207
28 22 335 32 334 29 212 266 314 309 288 180 170 176 187 127 331 70 179 211 228 105 229 239 245 258 269 263 233 205 199 193 198 197 194 181 188 188 190 197 199 197 203 210
25 23 318 154 261 242 214 209 222 242 145 146 126 90 239 313 197 177 225 227 161 250 242 245 247 275 284 275 220 192 197 193 193 194 190 189 186 196 194 196 192 190 203 208
0 76 236 237 242 258 236 240 261 231 157 144 157 158 199 195 256 217 227 221 241 226 235 243 279 306 305 283 233 214 205 194 197 194 193 195 194 195 200 203 202 205 205 203
247 236 248 245 314 286 266 253 256 191 171 164 239 197 184 225 205 190 215 204 219 237 227 259 305 298 294 292 258 231 211 197 197 203 203 199 197 201 208 199 203 206 203 202
233 244 257 290 298 276 293 323 327 329 189 240 210 212 215 107 218 219 206 217 242 280 295 303 290 286 293 297 285 239 204 199 201 199 204 209 201 194 191 206 213 213 214 212